Location: Tel Aviv
(32.0670°N, 34.7670°E)
Time: 18:34:26
(UTC+03:00)

TIGRISAT - Visible Passes

Search period start: 19 April 2024 00:00
Search period end: 29 April 2024 00:00
Orbit: 594 x 674 km, 97.7° (Epoch: 18 April)

Date Brightness Start Highest point End Pass type
(mag) Time Alt. Az. Time Alt. Az. Time Alt. Az.
19 Apr ? 04:39:25 10° SSE 04:43:53 71° ENE 04:48:15 10° N visible
20 Apr ? 05:01:05 10° S 05:05:31 62° W 05:09:53 10° NNW visible
21 Apr ? 03:48:13 10° ESE 03:51:04 17° ENE 03:53:53 10° NNE visible
21 Apr ? 05:23:09 10° SSW 05:27:11 33° W 05:31:10 10° NNW visible
22 Apr ? 04:08:41 10° SE 04:12:32 29° ENE 04:16:19 10° NNE visible
23 Apr ? 04:29:44 10° SSE 04:34:03 53° ENE 04:38:17 10° N visible
24 Apr ? 04:51:10 10° S 04:55:36 82° WSW 04:59:57 10° NNW visible
25 Apr ? 03:39:10 10° E 03:41:11 13° ENE 03:43:10 10° NE visible
25 Apr ? 05:13:00 10° S 05:17:12 43° W 05:21:19 10° NNW visible
26 Apr ? 03:59:08 10° ESE 04:02:33 23° ENE 04:05:56 10° NNE visible
27 Apr ? 04:19:53 10° SE 04:23:59 40° ENE 04:28:01 10° N visible
28 Apr ? 04:41:05 10° SSE 04:45:27 76° ENE 04:49:45 10° N visible
